Retour au catalogue

STARLINK-36630

ActifCommunicationsSSO
NORAD 67703·PAYLOAD·🇺🇸 United States

Lancé Feb 7, 2026 depuis Vandenberg Space Force Base

Loading…

Prochains Passages (prochaines 24 heures)

TLE

FraisSource: CelesTrak SupGP

Époque: Sep 14, 2026, 15:49 UTC

1 67703C 26025L   26257.65951389  .00096262  00000+0  29901-2 0  2570
2 67703  97.2853   7.6612 0000769  97.7367 205.4078 15.33371193    15

Suivez STARLINK-36630 en temps réel avec AllMySat

Download on the App Store